Location: Heidgraben
(53.7081°N, 9.6576°E)
Time: 08:26:49
(UTC+00:00)

Cosmos 2237 Rocket - Pass Details

Date: 05 July 2020
Orbit: 835 x 850 km, 71.0° (Epoch: 14 August)

Event Time Altitude Azimuth Distance (km) Brightness Sun altitude
Exits shadow 22:14:26 10° 197° (SSW) 2,452 4.1 -12.1°
Maximum altitude 22:20:01 67° 116° (ESE) 924 2.2 -12.3°
Drops below altitude 10° 22:25:40 10° 36° (NE) 2,489 5.2 -12.5°
Sets 22:28:09 0° 34° (NNE) 3,428 6.0 -12.6°
